Terminal Aerodrome Forecast
Issued by NWS Jackson, MS

Home | Current Version | Previous Version | Text Only | Print | Product List | Glossary On
Versions: 1 2 3 4 5 6 7 8 9 10 11 12 13 14 15 16
000
FTUS44 KJAN 281146
TAFHBG
TAF
KHBG 281146Z 2812/2912 18003KT P6SM OVC015
     FM281300 20003KT 5SM BR OVC007
     FM281600 22005KT P6SM OVC020
     FM281800 20007KT P6SM OVC050
     FM290800 17003KT 5SM BR BKN007=

USA.gov is the U.S. government's official web portal to all federal, state and local government web resources and services.